Miscellaneous Local Product
Issued by NWS North Platte, NE

Home | Current Version | Previous Version | Text Only | Print | Product List | Glossary On
Versions: 1 2 3 4 5 6 7 8 9 10 11 12 13 14 15 16 17 18 19 20 21 22 23 24 25 26 27 28 29 30 31 32 33 34 35 36 37 38 39 40 41 42 43 44 45 46 47 48 49 50
000
AXUS43 KLBF 280210
MISLBF


WESTERN AND NORTH CENTRAL NEBRASKA HOURLY WEATHER ROUNDUP
NATIONAL WEATHER SERVICE NORTH PLATTE NE
900 PM CDT WED MAY 27 2015

***STATIONS NOT REPORTING VARIABLES SUCH AS SKY/WEATHER OR
PRESSURE ARE PROVIDED BY THE NEBRASKA DEPARTMENT OF
ROADS...RAWS...AND APRS NETWORKS...AND ARE NOT UNDER
NATIONAL WEATHER SERVICE QUALITY CONTROL***

...OBSERVATIONS IN AND NEAR THE EASTERN PANHANDLE OF NEBRASKA...

CITY           SKY/WX    TMP DP  RH WIND       PRES   REMARKS
PINE RIDGE     MOCLDY    67  51  56 S7        29.95R
CHADRON        PTCLDY    66  56  70 S3        29.94R
ALLIANCE       PTCLDY    63  55  75 S18       29.97F
SIDNEY         PTCLDY    61  53  75 SE18G30   30.05R
WHITECLAY        N/A     69  50  50 S8          N/A
BIG SPRINGS      N/A     63  59  86 SE20        N/A
$$

...OBSERVATIONS IN NORTH CENTRAL NEBRASKA...

CITY           SKY/WX    TMP DP  RH WIND       PRES   REMARKS
VALENTINE      CLOUDY    68  55  63 S20       29.97S
THEDFORD       CLOUDY    69  56  63 W8        30.04R
AINSWORTH      CLOUDY    68  55  62 S13       30.01R
O`NEILL        MOCLDY    67  55  64 S6        30.01S
ORD            CLOUDY    66  55  67 SW3       30.01S
BROKEN BOW     CLOUDY    68  55  63 SE7       30.02R
BROWNLEE         N/A     62  54  73 SW9         N/A
VALENTINE NWR    N/A     66  55  68 S9          N/A
SPRINGVIEW       N/A     71  55  58 SE5         N/A
HALSEY           N/A     68  55  63 SE9G16      N/A
BREWSTER         N/A     70  57  63 S8          N/A
ROSE             N/A     71  59  67 E7          N/A
NEWPORT          N/A     70  55  60 S8          N/A
SARGENT          N/A     65  55  70 CALM        N/A
COMSTOCK         N/A     72  59  64 S7          N/A
EWING            N/A     70  56  60 CALM        N/A
$$

...OBSERVATIONS IN SOUTHWEST NEBRASKA AND FAR NORTHEAST COLORADO...

CITY           SKY/WX    TMP DP  RH WIND       PRES   REMARKS
WRAY           FAIR      62  54  74 E17G23    30.04R
HOLYOKE        FAIR      61  54  77 SE18      30.05R
IMPERIAL       CLOUDY    62  57  83 SE16G25   30.04F
OGALLALA       MOCLDY    63  59  87 SE10G16   30.02F
NORTH PLATTE   LGT RAIN  66  57  72 S13       30.02F
MCCOOK         RAIN      64  61  90 SE21G28   30.03F FOG
LEXINGTON      LGT RAIN  68  58  68 S14       30.05R
PAXTON           N/A     63  59  87 SE15        N/A
GOTHENBURG       N/A     67  56  67 SE7         N/A
CALLAWAY         N/A     65  58  79 S9          N/A
$$

...NORTH PLATTE AREA...

CITY           SKY/WX    TMP DP  RH WIND       PRES   REMARKS
AIRPORT        LGT RAIN  66  57  72 S13       30.02F
$$

...SOME WEATHER OBSERVATIONS FROM AROUND THE REGION...

CITY           SKY/WX    TMP DP  RH WIND       PRES   REMARKS
DENVER         MOCLDY    63  45  51 SE9       30.02S
LARAMIE        CLOUDY    54  40  59 SW10      30.12R
CHEYENNE       CLOUDY    60  47  61 SE6       30.08R
SCOTTSBLUFF    CLEAR     64  56  75 SE12      29.97S
RAPID CITY     MOCLDY    66  54  65 S6        29.90S
PIERRE         CLOUDY    72  51  47 SE10      29.91R
WINNER         FAIR      74  51  44 S14       29.95S
SIOUX FALLS    PTCLDY    71  50  47 S7        30.00R
OMAHA          MOCLDY    71  55  56 SE8       30.03R
GRAND ISLAND   CLOUDY    70  54  56 S9        30.04R
KANSAS CITY    MOCLDY    73  54  51 SE9       30.07R
WICHITA        CLOUDY    76  65  68 SE8       30.03R
HAYS           CLOUDY    68  57  68 SE21G26   30.00R
LIBERAL        CLOUDY    64  55  72 NE10      30.08R
GOODLAND       MOCLDY    65  58  78 S20G31    30.03R
$$



USA.gov is the U.S. government's official web portal to all federal, state and local government web resources and services.